This is the latest recevied weather packets stored in our database for station/object KF4LQQ-13. If no packets are shown the sender has not sent any weather packets the latest 10 day(s).
| Time | Temp. | Humidity | Pressure | Rain* | Wind** | Luminosity | Snow |
|---|---|---|---|---|---|---|---|
| 1777683040 | 26.11° C | - | 1008.8 hPa | 0 mm | - | - | - |
| 1777682439 | 25.56° C | - | 1008.7 hPa | 0 mm | - | - | - |
| 1777681839 | 25.56° C | - | 1008.6 hPa | 0 mm | - | - | - |
| 1777681239 | 25.56° C | - | 1008.5 hPa | 0 mm | - | - | - |
| 1777681047 | 26.11° C | - | 1008.3 hPa | 0 mm | - | - | - |
| 1777680639 | 26.11° C | - | 1008.5 hPa | 0 mm | - | - | - |
| 1777680206 | 26.11° C | - | 1008.3 hPa | 0 mm | - | - | - |
| 1777680038 | 26.11° C | - | 1008.3 hPa | 0 mm | - | - | - |
| 1777679440 | 26.67° C | - | 1008.3 hPa | 0 mm | - | - | - |
| 1777678837 | 26.67° C | - | 1008.2 hPa | 0 mm | - | - | - |
| 1777678237 | 26.67° C | - | 1008.1 hPa | 0 mm | - | - | - |
| 1777677636 | 27.22° C | - | 1008.1 hPa | 0 mm | - | - | - |
| 1777677036 | 27.78° C | - | 1008 hPa | 0 mm | - | - | - |
| 1777676641 | 28.33° C | - | 1007.7 hPa | 0 mm | - | - | - |
| 1777676435 | 27.22° C | - | 1007.9 hPa | 0 mm | - | - | - |
| 1777675835 | 27.78° C | - | 1007.8 hPa | 0 mm | - | - | - |
| 1777675235 | 28.33° C | - | 1007.7 hPa | 0 mm | - | - | - |
| 1777674635 | 28.33° C | - | 1007.7 hPa | 0 mm | - | - | - |
| 1777674036 | 28.33° C | - | 1007.7 hPa | 0 mm | - | - | - |
| 1777673434 | 28.33° C | - | 1007.7 hPa | 0 mm | - | - | - |
| 1777673095 | 28.89° C | - | 1007.7 hPa | 0 mm | - | - | - |
| 1777672834 | 28.89° C | - | 1007.7 hPa | 0 mm | - | - | - |
| 1777672369 | 28.33° C | - | 1007.7 hPa | 0 mm | - | - | - |
| 1777672234 | 28.33° C | - | 1007.7 hPa | 0 mm | - | - | - |
| 1777671633 | 28.33° C | - | 1007.9 hPa | 0 mm | - | - | - |
* Rain since midnight (hover to see other rain measurements)
** Current wind speed in m/s (hover to see current wind gust speed)